Temperature
7 6 5 5 4 3 2 1 -1 -2 -2 -0 -0 -1 -2 -2 -2 -3 -3 -4 -4 -4 -5 -5 -6 -6 -5 -5 -5 -5 -5 -4 -4 -4 -3 -3 -3 -2
6 5 4 4 3 2 1 0 -1 -3 -4 -3 -2 -2 -2 -3 -3 -4 -4 -4 -4 -5 -5 -6 -6 -6 -6 -6 -5 -5 -5 -5 -4 -4 -4 -3 -3 -3
5 4 3 3 2 1 0 -1 -2 -3 -4 -4 -3 -3 -3 -3 -3 -4 -4 -5 -5 -5 -6 -6 -6 -6 -6 -6 -6 -6 -5 -5 -5 -5 -5 -4 -4 -4
3 3 2 2 1 0 -0 -1 -2 -3 -4 -5 -5 -5 -5 -5 -5 -5 -6 -6 -6 -5 -6 -6 -6 -6 -6 -6 -6 -6 -6 -6 -6 -6 -5 -5 -5 -4
2 2 1 1 0 -0 -1 -2 -3 -4 -5 -6 -6 -6 -6 -6 -6 -6 -7 -6 -6 -6 -6 -6 -5 -6 -6 -6 -6 -6 -6 -6 -6 -6 -6 -6 -5 -5
1 1 0 -0 -1 -1 -2 -3 -4 -5 -6 -7 -7 -7 -7 -7 -7 -8 -8 -7 -6 -6 -6 -6 -6 -6 -5 -5 -6 -6 -5 -5 -5 -6 -6 -6 -6 -5
1 0 -0 -1 -2 -3 -4 -5 -6 -7 -7 -7 -8 -8 -8 -8 -8 -8 -9 -8 -7 -6 -6 -6 -6 -6 -5 -5 -5 -5 -5 -6 -6 -6 -6 -6 -6 -6
-0 -1 -1 -2 -3 -4 -5 -6 -7 -7 -8 -8 -8 -9 -8 -8 -8 -9 -9 -9 -9 -8 -8 -7 -7 -6 -6 -6 -6 -6 -6 -6 -6 -6 -6 -6 -6 -6
-1 -1 -2 -3 -4 -4 -5 -6 -7 -7 -8 -8 -9 -9 -9 -9 -9 -9 -9 -9 -9 -8 -8 -8 -7 -6 -6 -6 -6 -6 -6 -6 -6 -6 -7 -7 -6 -6
-2 -3 -3 -4 -4 -5 -7 -7 -7 -7 -8 -8 -8 -9 -9 -9 -9 -9 -9 -9 -9 -7 -8 -9 -7 -7 -7 -6 -5 -5 -5 -6 -6 -6 -6 -6 -6 -6
-3 -4 -5 -5 -5 -7 -8 -8 -8 -7 -7 -8 -8 -8 -8 -8 -8 -9 -9 -9 -10 -8 -8 -9 -8 -8 -7 -6 -5 -5 -5 -6 -6 -6 -6 -6 -6 -6
-4 -4 -5 -6 -7 -8 -8 -8 -8 -8 -8 -8 -7 -7 -7 -7 -7 -8 -9 -10 -10 -10 -8 -9 -9 -10 -10 -8 -7 -6 -6 -5 -5 -5 -5 -5 -6 -6
-5 -5 -5 -6 -7 -8 -8 -8 -8 -8 -8 -8 -7 -7 -7 -7 -7 -7 -8 -9 -10 -10 -8 -10 -10 -10 -11 -11 -8 -6 -6 -6 -5 -5 -5 -5 -5 -6
-6 -6 -6 -7 -8 -8 -8 -7 -8 -8 -8 -7 -7 -7 -7 -7 -7 -7 -7 -8 -8 -8 -8 -9 -10 -10 -11 -11 -10 -7 -6 -6 -6 -5 -5 -5 -6 -6
-7 -7 -8 -8 -8 -7 -7 -7 -8 -8 -7 -7 -7 -7 -7 -7 -7 -7 -7 -7 -7 -7 -7 -8 -9 -9 -10 -11 -10 -9 -7 -6 -5 -5 -6 -6 -6 -6
-7 -7 -8 -8 -8 -8 -7 -7 -7 -7 -8 -8 -8 -7 -7 -7 -7 -7 -8 -8 -7 -7 -6 -7 -8 -9 -9 -9 -10 -9 -7 -7 -6 -6 -7 -6 -6 -6
-8 -8 -7 -7 -7 -7 -7 -7 -7 -7 -7 -7 -7 -7 -7 -8 -7 -8 -8 -8 -8 -8 -7 -7 -7 -8 -8 -9 -9 -7 -7 -7 -7 -7 -8 -8 -7 -6
-8 -8 -8 -8 -8 -8 -7 -7 -7 -7 -7 -7 -7 -8 -8 -8 -8 -8 -8 -8 -8 -8 -8 -8 -8 -8 -8 -8 -8 -8 -7 -7 -7 -7 -8 -9 -8 -6
-8 -8 -8 -8 -8 -8 -8 -7 -7 -7 -7 -7 -7 -8 -8 -8 -8 -8 -8 -8 -8 -8 -8 -8 -9 -10 -10 -10 -9 -8 -8 -8 -8 -8 -8 -8 -8 -7
-8 -8 -8 -8 -8 -8 -8 -8 -7 -7 -7 -7 -7 -7 -8 -8 -8 -8 -8 -8 -9 -9 -9 -8 -8 -9 -10 -9 -9 -7 -7 -8 -8 -8 -8 -7 -7 -6
-8 -8 -8 -8 -8 -8 -8 -8 -7 -7 -7 -7 -7 -7 -7 -8 -8 -8 -8 -8 -9 -9 -9 -8 -8 -8 -8 -9 -9 -8 -6 -6 -7 -7 -7 -7 -7 -6
-9 -8 -8 -8 -8 -8 -8 -7 -7 -7 -7 -7 -7 -7 -7 -7 -8 -8 -8 -8 -8 -9 -9 -8 -7 -8 -8 -8 -9 -8 -7 -6 -5 -6 -6 -6 -6 -6
-9 -8 -8 -8 -8 -8 -8 -7 -7 -7 -7 -7 -7 -7 -7 -7 -8 -8 -8 -8 -8 -8 -8 -8 -8 -8 -8 -8 -8 -8 -7 -6 -6 -5 -5 -5 -5 -5
Wind_Speed
5 4 3 2 2 2 3 4 3 3 4 4 3 3 8 14 18 18 17 24 27 27 26 26 26 27 27 28 28 27 28 28 28 28 29 29 29 30
3 4 2 2 2 2 3 3 4 5 5 4 5 5 10 16 21 20 20 26 25 26 26 27 27 28 28 27 27 28 28 28 28 29 29 29 29 29
3 3 2 2 2 3 3 3 4 4 8 7 5 5 7 10 15 19 20 19 20 25 27 28 28 28 28 28 28 28 28 28 28 29 29 29 29 29
1 1 2 2 3 3 3 4 5 5 6 10 7 5 8 10 10 11 16 18 18 25 27 28 28 28 28 28 28 28 28 28 28 28 28 29 29 29
1 1 2 3 4 4 5 5 5 6 6 8 10 6 6 8 10 11 11 11 17 21 24 26 27 27 28 28 29 29 29 28 28 28 28 28 28 28
2 2 3 3 5 6 6 7 7 7 7 7 9 8 8 8 7 9 12 8 11 15 20 23 24 26 27 29 29 29 29 28 28 28 28 28 28 28
3 3 4 6 8 7 6 6 5 5 6 7 9 10 10 9 9 9 14 12 11 11 10 10 11 12 16 24 26 27 28 28 28 28 28 28 28 28
3 4 5 6 9 12 14 15 13 9 8 7 9 12 13 11 11 12 14 15 13 4 6 12 10 12 10 11 24 28 29 30 29 29 28 27 27 26
3 4 4 6 9 7 11 15 14 17 17 12 12 13 14 13 14 15 14 14 15 11 12 16 11 13 11 17 27 30 31 30 28 27 26 25 25 26
2 3 5 6 8 10 8 7 8 9 14 11 11 13 13 12 13 14 14 13 13 11 9 13 13 13 13 10 26 29 28 26 25 25 25 26 26 26
4 5 6 7 14 17 10 9 10 10 16 21 22 21 24 25 19 11 9 12 14 12 7 6 7 10 12 13 15 22 22 24 26 27 27 26 26 25
4 5 9 12 15 17 10 9 11 11 11 12 13 17 15 16 19 10 8 11 12 9 4 4 6 7 8 5 7 9 14 23 26 26 26 26 25 17
4 5 6 16 18 18 16 8 13 15 8 8 10 11 10 8 8 7 7 9 12 11 8 6 8 7 8 8 6 9 12 12 13 17 22 24 24 18
5 5 8 17 18 18 14 15 19 15 7 9 9 10 10 10 10 10 10 10 12 16 15 12 11 12 13 15 12 8 9 11 12 14 12 18 19 21
6 12 15 17 16 12 14 17 14 8 8 9 10 11 9 10 11 11 11 10 12 14 15 13 13 13 13 14 13 14 14 12 12 11 9 10 11 12
7 9 13 14 12 12 12 10 7 7 9 9 10 11 10 10 10 9 11 11 11 12 10 11 12 13 14 15 15 17 15 10 9 11 12 13 12 12
6 4 5 7 8 8 8 7 7 8 8 9 10 11 12 11 11 9 8 9 10 13 15 11 8 10 14 15 16 17 15 15 14 13 13 15 13 12
7 5 6 7 8 9 10 10 10 9 9 10 11 11 11 12 12 11 10 11 12 13 14 13 12 12 9 10 17 17 15 14 13 13 13 16 16 12
4 5 6 7 8 8 9 10 11 11 10 10 11 11 11 12 12 12 12 12 12 13 13 12 11 12 14 16 9 14 14 14 15 14 14 14 17 14
4 5 7 8 8 9 9 10 11 11 10 10 11 11 11 12 12 13 12 13 14 14 14 12 10 11 13 15 15 14 16 15 15 16 15 14 15 19
6 6 7 8 9 9 9 10 11 11 12 12 12 12 12 12 12 13 13 18 16 14 15 15 14 19 14 11 12 13 13 14 17 16 16 15 15 13
7 8 8 9 9 9 10 10 11 11 12 11 12 12 12 12 13 15 14 14 14 14 15 15 14 13 11 13 15 17 18 16 17 21 21 19 13 8
8 8 9 9 9 9 9 10 12 12 12 12 12 12 12 13 13 13 13 14 14 15 15 15 14 12 12 13 14 15 18 18 14 14 13 16 19 21
Wind_Direction
129 134 137 153 157 168 167 168 194 270 283 269 281 279 309 314 312 312 308 309 307 306 305 303 302 301 300 298 297 296 295 293 291 289 286 283 281 279
138 145 155 177 183 187 191 195 193 216 258 260 260 279 300 306 309 312 306 307 307 305 302 302 301 300 299 298 298 296 295 293 291 289 287 285 283 282
132 158 200 202 210 217 214 216 220 216 261 275 262 281 288 291 301 301 301 298 296 301 302 301 300 300 300 299 297 296 295 294 292 291 290 288 286 284
134 157 246 242 236 236 234 239 242 234 249 281 286 281 278 283 288 291 300 299 296 299 300 300 300 300 299 297 297 297 296 295 294 292 289 287 284 281
79 283 273 262 263 260 254 252 253 260 250 274 289 285 283 287 291 291 290 288 293 297 299 299 298 297 297 298 298 298 297 295 293 290 287 283 280 279
32 339 298 273 264 264 261 256 258 264 268 275 287 292 290 289 288 297 302 290 292 295 293 292 294 296 296 296 296 296 295 293 290 288 285 283 281 279
1 340 319 304 292 285 279 267 264 263 270 280 291 298 299 302 301 300 302 301 291 283 280 282 286 284 287 290 292 292 290 290 289 289 287 285 282 280
348 335 322 314 313 318 311 304 298 292 293 289 295 297 298 296 297 298 299 302 301 273 285 295 289 286 284 279 288 291 292 292 291 290 287 284 282 280
339 326 325 323 330 303 301 303 299 299 298 297 293 290 291 292 292 293 291 291 294 296 298 295 290 288 286 288 292 293 293 292 291 289 288 287 285 283
306 298 297 298 305 305 289 287 280 283 288 287 277 278 281 282 281 289 295 296 291 285 279 286 289 288 289 284 290 289 290 291 292 292 291 289 286 283
293 296 306 297 309 315 312 299 293 290 298 298 296 296 299 302 304 302 299 300 298 295 279 270 281 292 290 282 279 284 288 293 294 292 290 288 286 284
300 297 315 318 315 317 311 301 301 299 297 300 302 303 299 297 300 291 283 290 294 295 258 259 286 308 298 259 257 275 285 289 290 290 289 288 287 284
308 306 306 318 318 318 318 308 302 308 310 309 306 302 300 295 292 281 270 277 286 282 282 288 287 282 278 288 278 272 278 282 287 287 287 286 283 279
303 297 301 315 320 321 321 314 315 322 320 309 304 303 304 303 301 297 287 276 269 273 279 280 281 283 284 287 290 286 281 281 281 282 279 282 281 280
299 310 316 322 325 323 317 320 325 320 308 306 305 302 298 293 296 297 293 285 278 274 273 265 265 272 273 277 282 287 293 291 281 273 271 270 273 274
304 316 328 329 327 321 320 319 312 302 306 302 302 301 301 299 298 296 299 304 301 296 277 256 253 259 270 272 276 282 281 278 279 278 279 279 273 265
333 345 333 329 330 326 321 316 313 313 312 306 304 305 305 304 302 300 292 297 295 298 302 299 262 250 255 266 275 274 275 275 273 276 280 281 275 264
350 333 326 323 321 321 320 319 317 314 311 309 305 302 302 302 302 301 297 297 296 295 295 297 302 301 286 260 242 259 268 272 276 276 274 280 281 269
344 318 315 314 313 312 311 310 309 309 308 305 302 301 300 300 300 300 301 299 296 295 294 294 295 298 302 304 271 237 257 277 283 282 276 273 277 278
319 309 310 310 310 309 309 308 308 309 308 305 302 300 299 299 299 298 298 297 299 300 300 297 291 291 290 293 295 287 271 269 278 282 283 279 275 275
316 311 307 307 307 305 304 304 303 303 302 302 300 299 299 299 298 298 299 300 301 300 301 301 295 296 293 290 289 290 289 277 275 280 285 285 285 282
311 309 306 304 304 303 302 302 303 302 301 300 299 298 298 297 297 298 299 301 301 299 299 299 298 300 298 296 296 297 301 302 296 290 282 275 279 283
310 307 305 304 302 300 300 300 299 299 298 298 299 299 300 301 300 298 298 300 301 303 306 307 308 305 302 299 299 300 302 306 308 309 301 292 288 283
Height
1496 1497 1496 1495 1495 1493 1492 1490 1488 1483 1478 1476 1475 1473 1470 1466 1462 1457 1453 1449 1445 1442 1438 1435 1432 1429 1427 1424 1422 1419 1417 1415 1413 1411 1409 1408 1407 1405
1493 1493 1492 1492 1490 1489 1487 1485 1483 1480 1474 1470 1469 1467 1463 1459 1455 1450 1445 1441 1437 1434 1430 1427 1424 1421 1418 1416 1413 1410 1408 1406 1404 1402 1400 1399 1397 1396
1489 1489 1488 1487 1486 1484 1482 1480 1478 1474 1468 1463 1462 1459 1455 1451 1447 1443 1438 1433 1429 1426 1422 1419 1416 1413 1410 1407 1404 1401 1399 1396 1394 1392 1390 1388 1387 1386
1486 1485 1484 1483 1481 1479 1477 1474 1472 1468 1464 1457 1453 1451 1447 1443 1439 1434 1430 1426 1422 1418 1414 1411 1407 1404 1401 1398 1395 1392 1389 1386 1383 1381 1379 1377 1376 1375
1482 1481 1480 1478 1476 1473 1471 1468 1465 1462 1458 1452 1446 1443 1440 1436 1431 1426 1422 1418 1414 1410 1406 1402 1399 1396 1393 1389 1386 1382 1379 1375 1373 1370 1368 1366 1365 1365
1478 1477 1475 1473 1470 1468 1465 1462 1459 1455 1452 1447 1441 1436 1433 1429 1425 1419 1413 1409 1405 1402 1398 1395 1391 1388 1384 1380 1376 1372 1369 1365 1362 1360 1359 1357 1356 1354
1474 1473 1471 1468 1465 1462 1459 1456 1453 1449 1445 1441 1435 1430 1426 1422 1418 1413 1407 1401 1396 1394 1389 1385 1382 1377 1374 1370 1366 1363 1359 1356 1353 1351 1349 1347 1345 1344
1470 1468 1466 1463 1459 1456 1453 1451 1448 1444 1440 1436 1430 1426 1420 1417 1412 1407 1402 1395 1389 1386 1382 1376 1374 1368 1365 1361 1357 1353 1349 1346 1343 1340 1338 1336 1334 1333
1465 1463 1460 1457 1453 1450 1447 1444 1441 1438 1435 1432 1425 1420 1415 1411 1407 1401 1397 1391 1385 1380 1376 1366 1364 1359 1355 1351 1348 1344 1340 1336 1333 1330 1328 1326 1324 1322
1460 1457 1454 1451 1448 1444 1440 1437 1434 1431 1428 1424 1419 1414 1410 1406 1402 1397 1391 1384 1377 1373 1370 1360 1354 1350 1345 1341 1338 1335 1331 1327 1324 1320 1318 1315 1313 1311
1456 1452 1449 1445 1442 1438 1435 1431 1427 1424 1421 1417 1413 1409 1405 1401 1396 1390 1384 1377 1369 1364 1362 1355 1346 1340 1333 1329 1327 1325 1321 1318 1314 1310 1307 1304 1302 1300
1451 1448 1444 1440 1437 1434 1430 1426 1421 1417 1413 1409 1405 1402 1398 1394 1390 1385 1378 1372 1364 1356 1352 1348 1340 1335 1322 1315 1315 1314 1311 1307 1304 1300 1297 1294 1292 1289
1445 1442 1439 1435 1432 1429 1425 1421 1416 1413 1408 1403 1399 1395 1391 1387 1382 1378 1373 1367 1359 1352 1347 1343 1335 1330 1324 1311 1304 1304 1302 1297 1293 1289 1287 1284 1282 1281
1440 1437 1433 1430 1427 1424 1420 1416 1412 1408 1403 1398 1394 1389 1384 1380 1375 1371 1366 1360 1354 1347 1341 1337 1330 1324 1317 1308 1300 1294 1292 1289 1284 1280 1277 1275 1274 1271
1436 1433 1430 1426 1422 1419 1416 1412 1408 1403 1399 1394 1388 1383 1379 1373 1368 1363 1357 1352 1346 1341 1335 1329 1323 1317 1312 1304 1295 1288 1282 1278 1276 1272 1268 1265 1262 1260
1432 1429 1426 1422 1419 1415 1412 1408 1404 1399 1394 1389 1384 1378 1373 1367 1362 1356 1350 1343 1335 1330 1328 1322 1316 1310 1304 1297 1290 1281 1276 1271 1266 1263 1259 1254 1251 1249
1428 1425 1422 1418 1415 1411 1408 1404 1400 1396 1391 1385 1380 1373 1368 1362 1356 1351 1344 1337 1330 1322 1316 1313 1309 1303 1296 1290 1282 1275 1269 1263 1258 1254 1249 1243 1239 1238
1425 1422 1418 1415 1411 1407 1403 1399 1396 1391 1387 1381 1376 1370 1363 1357 1351 1345 1339 1332 1325 1318 1311 1305 1299 1293 1286 1280 1276 1268 1261 1255 1250 1245 1241 1235 1227 1226
1422 1419 1416 1412 1409 1405 1401 1396 1392 1388 1383 1378 1372 1366 1360 1353 1347 1340 1334 1327 1320 1313 1306 1300 1295 1288 1281 1271 1264 1262 1255 1247 1241 1236 1231 1226 1219 1214
1420 1416 1413 1410 1406 1402 1398 1394 1389 1384 1379 1374 1368 1363 1356 1349 1342 1336 1329 1323 1315 1308 1301 1295 1290 1284 1277 1268 1257 1250 1248 1241 1234 1228 1221 1216 1210 1205
1417 1414 1411 1407 1403 1400 1396 1391 1386 1381 1376 1371 1365 1359 1353 1346 1339 1332 1325 1319 1312 1305 1297 1289 1284 1279 1271 1263 1254 1243 1238 1234 1228 1221 1213 1207 1200 1195
1414 1411 1408 1405 1401 1397 1393 1388 1384 1378 1373 1367 1361 1355 1349 1342 1335 1328 1322 1315 1308 1301 1293 1285 1278 1271 1265 1258 1249 1239 1230 1224 1219 1213 1207 1201 1196 1188
1412 1409 1406 1402 1398 1394 1390 1385 1381 1375 1370 1364 1358 1352 1345 1339 1332 1325 1319 1312 1304 1297 1289 1281 1273 1266 1260 1253 1244 1235 1226 1218 1211 1204 1199 1194 1189 1183